Weather in Novoromanovo

Russia / Kemerovo Oblast     55°39′45″N   85°20′27″E
temp.,
°C
wind,
m/s
gust,
m/s
humid.,
%
clouds,
%
prec.,
mm/h
press.,
hPa
HPBL,
m
11 may, tue
tue1101:00+7ene346835 0.0 101964
04:00+6ne3972100 0.0 1018165
07:00+8ne41173100 0.0 1017315
10:00+14ne61049100 0.0 1017927
13:00+17ne7935100 0.0 10162664
16:00+18ne6830100 0.0 10162726
19:00+16nne7104330 0.0 1017742
22:00+13n6125351 0.0 1018331
12 may, wed
wed1201:00+10nne412677 0.0 1018316
04:00+8ne377833 0.0 1018132
07:00+9nne257313 0.0 1018148
10:00+16nne344514 0.0 1018797
13:00+18ne3337100 0.0 10172240
16:00+18n223760 0.0 10161891
19:00+17ne124875 0.0 1016463
22:00+13wsw125786 0.0 101747
13 may, thu
thu1301:00+11sse226395 0.0 101621
04:00+11s226598 0.1 101525
07:00+11sse256895 0.1 1015163
10:00+16ssw345172 0.0 1014845
13:00+18wsw233693 0.1 10132221
16:00+19w3431100 0.0 10122531
19:00+15nw6758100 0.0 1012892
22:00+11nw5772100 0.0 1014540
14 may, fri
fri1401:00+9nnw2581100 0.1 1014225
04:00+6nw378739 0.0 1014168
07:00+7wnw36783 0.0 1015281
10:00+9nw6768100 0.0 1016821
13:00+9nnw586575 0.2 10181376
16:00+13nw693665 0.1 10182268
19:00+12nnw473740 0.1 10201910
22:00+7nw225279 0.0 102217
15 may, sat
sat1501:00+6wsw225261 0.0 102312
04:00+8sw41046100 0.0 1021288
07:00+9sw51343100 0.0 1021467
10:00+14wsw81441100 0.0 1019695
13:00+16wsw61145100 0.1 1018612
16:00+21w81141100 0.0 10162351
19:00+19w595454 0.1 10171147
22:00+15sw2273100 0.4 101824